Weather History for Coolidge Muni, Coolidge, AZ

Change the Weather History Date:

Wednesday, February 5, 2014

  Actual Average (KCGZ) Record (KCGZ)
Temperature  
Mean Temperature 53 °F -  
Max Temperature 60 °F 63 °F 82 °F (2009)
Min Temperature 46 °F 38 °F 28 °F (2011)
Degree Days  
Heating Degree Days 12    
Growing Degree Days 3 (Base 50)    
Moisture  
Dew Point 30 °F    
Average Humidity 43    
Maximum Humidity 53    
Minimum Humidity 33    
Precipitation  
Precipitation 0.00 in - - ()
Sea Level Pressure  
Sea Level Pressure 30.02 in    
Wind  
Wind Speed 5 mph (East)    
Max Wind Speed 13 mph    
Max Gust Speed 14 mph    
Visibility 10 miles    
Events      
Averages and records for this station are not official NWS values.
T = Trace of Precipitation, MM = Missing Value Source: NWS Daily Summary

Daily Weather History Graph

Daily Weather History Graph

Search for Another Location

Airport:

Trip Planner

Search our weather history database for the weather conditions in past years. The results will help you decide how hot, cold, wet, or windy it might be!

Date:

Astronomy

Feb. 05, 2014 Rise Set
Actual Time 7:17 AM MST 6:02 PM MST
Civil Twilight 6:52 AM MST 6:27 PM MST
Nautical Twilight 6:22 AM MST 6:57 PM MST
Astronomical Twilight 5:53 AM MST 7:26 PM MST
Moon 10:57 AM MST (2/5) No Moon Set
Length of Visible Light 11h 35m
Length of Day
10h 44m
Waxing Crescent, 40% of the Moon is Illuminated
Feb 5
Waxing Crescent
Feb 6
First Quarter
Feb 14
Full
Feb 22
Last Quarter
Mar 1
New

Hourly Weather History & Observations

Time (MST) Temp. Windchill Dew Point Humidity Pressure Visibility Wind Dir Wind Speed Gust Speed Precip Events Conditions
12:15 AM 50.0 °F - 28.4 °F 43% 30.06 in 10.0 mi ESE 5.8 mph - N/A   Scattered Clouds
12:35 AM 50.0 °F - 28.4 °F 43% 30.06 in 10.0 mi ESE 5.8 mph - N/A   Partly Cloudy
12:55 AM 50.0 °F - 28.4 °F 43% 30.05 in 10.0 mi ESE 4.6 mph - N/A   Mostly Cloudy
1:15 AM 50.0 °F - 28.4 °F 43% 30.05 in 10.0 mi East 3.5 mph - N/A   Mostly Cloudy
1:35 AM 48.2 °F - 28.4 °F 46% 30.05 in 10.0 mi Calm Calm - N/A   Mostly Cloudy
1:55 AM 48.2 °F - 28.4 °F 46% 30.05 in 10.0 mi Calm Calm - N/A   Scattered Clouds
2:15 AM 48.2 °F - 28.4 °F 46% 30.05 in 10.0 mi ESE 4.6 mph - N/A   Scattered Clouds
2:35 AM 48.2 °F - 28.4 °F 46% 30.05 in 10.0 mi Calm Calm - N/A   Mostly Cloudy
2:55 AM 48.2 °F - 28.4 °F 46% 30.05 in 10.0 mi SE 3.5 mph - N/A   Mostly Cloudy
3:15 AM 48.2 °F - 28.4 °F 46% 30.05 in 10.0 mi Calm Calm - N/A   Overcast
3:35 AM 48.2 °F - 28.4 °F 46% 30.05 in 10.0 mi ESE 4.6 mph - N/A   Mostly Cloudy
3:55 AM 48.2 °F - 28.4 °F 46% 30.04 in 10.0 mi Calm Calm - N/A   Overcast
4:15 AM 48.2 °F - 28.4 °F 46% 30.03 in 10.0 mi East 5.8 mph - N/A   Overcast
4:35 AM 48.2 °F - 28.4 °F 46% 30.03 in 10.0 mi ESE 3.5 mph - N/A   Overcast
4:55 AM 48.2 °F - 28.4 °F 46% 30.03 in 10.0 mi Calm Calm - N/A   Overcast
5:15 AM 48.2 °F - 28.4 °F 46% 30.03 in 10.0 mi Calm Calm - N/A   Overcast
5:35 AM 48.2 °F - 28.4 °F 46% 30.03 in 10.0 mi Calm Calm - N/A   Overcast
5:55 AM 46.4 °F 43.5 °F 30.2 °F 53% 30.03 in 10.0 mi SE 5.8 mph - N/A   Overcast
6:15 AM 46.4 °F 43.5 °F 28.4 °F 50% 30.03 in 10.0 mi ESE 5.8 mph - N/A   Mostly Cloudy
6:35 AM 46.4 °F - 30.2 °F 53% 30.04 in 10.0 mi Calm Calm - N/A   Overcast
6:55 AM 46.4 °F - 28.4 °F 50% 30.04 in 10.0 mi Calm Calm - N/A   Mostly Cloudy
7:15 AM 46.4 °F 42.9 °F 28.4 °F 50% 30.02 in 10.0 mi ENE 6.9 mph - N/A   Mostly Cloudy
7:35 AM 46.4 °F 44.3 °F 28.4 °F 50% 30.02 in 10.0 mi East 4.6 mph - N/A   Overcast
7:55 AM 48.2 °F - 28.4 °F 46% 30.03 in 10.0 mi East 5.8 mph - N/A   Mostly Cloudy
8:15 AM 48.2 °F - 28.4 °F 46% 30.03 in 10.0 mi East 3.5 mph - N/A   Overcast
8:35 AM 48.2 °F - 30.2 °F 50% 30.04 in 10.0 mi SSW 3.5 mph - N/A   Mostly Cloudy
8:50 AM 50.0 °F - 28.4 °F 43% 30.04 in 10.0 mi SE 5.8 mph - N/A   Mostly Cloudy
9:15 AM 53.6 °F - 28.4 °F 38% 30.03 in 10.0 mi East 9.2 mph - N/A   Partly Cloudy
9:30 AM 53.6 °F - 30.2 °F 41% 30.04 in 10.0 mi ESE 5.8 mph - N/A   Scattered Clouds
9:55 AM 55.4 °F - 28.4 °F 36% 30.04 in 10.0 mi SE 5.8 mph - N/A   Scattered Clouds
10:15 AM 55.4 °F - 28.4 °F 36% 30.05 in 10.0 mi Calm Calm - N/A   Scattered Clouds
10:35 AM 55.4 °F - 30.2 °F 38% 30.05 in 10.0 mi Calm Calm - N/A   Scattered Clouds
10:55 AM 57.2 °F - 28.4 °F 33% 30.05 in 10.0 mi Calm Calm - N/A   Clear
11:15 AM 57.2 °F - 30.2 °F 36% 30.05 in 10.0 mi NW 5.8 mph - N/A   Clear
11:35 AM 57.2 °F - 30.2 °F 36% 30.05 in 10.0 mi West 5.8 mph - N/A   Clear
11:55 AM 55.4 °F - 32.0 °F 41% 30.05 in 10.0 mi WSW 6.9 mph - N/A   Partly Cloudy
12:15 PM 57.2 °F - 30.2 °F 36% 30.04 in 10.0 mi North 9.2 mph - N/A   Clear
12:35 PM 57.2 °F - 30.2 °F 36% 30.03 in 10.0 mi North 9.2 mph - N/A   Scattered Clouds
12:55 PM 57.2 °F - 32.0 °F 38% 30.02 in 10.0 mi North 12.7 mph - N/A   Partly Cloudy
1:15 PM 57.2 °F - 32.0 °F 38% 30.01 in 10.0 mi North 10.4 mph - N/A   Partly Cloudy
1:35 PM 59.0 °F - 32.0 °F 36% 30.00 in 10.0 mi NE 12.7 mph - N/A   Mostly Cloudy
1:55 PM 59.0 °F - 32.0 °F 36% 29.99 in 10.0 mi NNE 11.5 mph - N/A   Mostly Cloudy
2:15 PM 60.8 °F - 32.0 °F 34% 29.98 in 10.0 mi NE 11.5 mph - N/A   Scattered Clouds
2:35 PM 59.0 °F - 32.0 °F 36% 29.98 in 10.0 mi NE 12.7 mph - N/A   Mostly Cloudy
2:55 PM 60.8 °F - 32.0 °F 34% 29.97 in 10.0 mi ENE 9.2 mph - N/A   Scattered Clouds
3:15 PM 60.8 °F - 32.0 °F 34% 29.96 in 10.0 mi NE 11.5 mph - N/A   Scattered Clouds
3:35 PM 60.8 °F - 32.0 °F 34% 29.96 in 10.0 mi NNE 11.5 mph - N/A   Partly Cloudy
3:55 PM 60.8 °F - 32.0 °F 34% 29.97 in 10.0 mi Variable 5.8 mph 13.8 mph N/A   Clear
4:15 PM 60.8 °F - 32.0 °F 34% 29.97 in 10.0 mi NE 9.2 mph - N/A   Mostly Cloudy
4:35 PM 60.8 °F - 32.0 °F 34% 29.97 in 10.0 mi NE 8.1 mph - N/A   Overcast
4:55 PM 59.0 °F - 30.2 °F 34% 29.97 in 10.0 mi NE 8.1 mph - N/A   Mostly Cloudy
5:15 PM 59.0 °F - 30.2 °F 34% 29.98 in 10.0 mi North 3.5 mph - N/A   Mostly Cloudy
5:35 PM 59.0 °F - 30.2 °F 34% 29.98 in 10.0 mi North 6.9 mph - N/A   Overcast
5:55 PM 59.0 °F - 30.2 °F 34% 29.99 in 10.0 mi North 4.6 mph - N/A   Overcast
6:15 PM 57.2 °F - 30.2 °F 36% 29.99 in 10.0 mi NNE 4.6 mph - N/A   Overcast
6:30 PM 57.2 °F - 32.0 °F 38% 29.99 in 10.0 mi NE 4.6 mph - N/A   Overcast
7:15 PM 55.4 °F - 30.2 °F 38% 30.01 in 10.0 mi NNE 3.5 mph - N/A   Overcast
7:30 PM 55.4 °F - 32.0 °F 41% 30.01 in 10.0 mi NE 4.6 mph - N/A   Overcast
7:55 PM 53.6 °F - 30.2 °F 41% 30.01 in 10.0 mi NE 5.8 mph - N/A   Overcast
8:15 PM 53.6 °F - 30.2 °F 41% 30.02 in 10.0 mi ENE 4.6 mph - N/A   Overcast
8:35 PM 51.8 °F - 30.2 °F 44% 30.02 in 10.0 mi ESE 4.6 mph - N/A   Mostly Cloudy
8:55 PM 48.2 °F - 30.2 °F 50% 30.02 in 10.0 mi ESE 6.9 mph - N/A   Partly Cloudy
9:15 PM 48.2 °F - 30.2 °F 50% 30.02 in 10.0 mi ESE 6.9 mph - N/A   Clear
9:35 PM 48.2 °F - 30.2 °F 50% 30.02 in 10.0 mi ESE 8.1 mph - N/A   Clear
9:55 PM 48.2 °F - 30.2 °F 50% 30.02 in 10.0 mi ESE 9.2 mph - N/A   Clear
10:15 PM 48.2 °F - 30.2 °F 50% 30.03 in 10.0 mi ESE 8.1 mph - N/A   Clear
10:35 PM 46.4 °F 42.4 °F 30.2 °F 53% 30.03 in 10.0 mi ESE 8.1 mph - N/A   Clear
10:55 PM 46.4 °F 41.9 °F 30.2 °F 53% 30.04 in 10.0 mi ESE 9.2 mph - N/A   Clear
11:15 PM 46.4 °F 42.4 °F 30.2 °F 53% 30.04 in 10.0 mi ESE 8.1 mph - N/A   Clear
11:35 PM 46.4 °F 41.9 °F 30.2 °F 53% 30.04 in 10.0 mi ESE 9.2 mph - N/A   Clear
11:55 PM 46.4 °F 42.4 °F 30.2 °F 53% 30.04 in 10.0 mi ESE 8.1 mph - N/A   Clear